159  
NZUS01 KOTX 191925  
RWROTX  
 
EASTERN WASHINGTON/NORTHERN IDAHO ROUNDUP  
NATIONAL WEATHER SERVICE, SPOKANE WA  
1200 PM PDT TUE MAR 19 2019  
 
NOTE: "FAIR" INDICATED FEW OR NO CLOUDS BELOW 12,000 FEET WITH NO  
SIGNIFICANT WEATHER AND/OR S TO VISIBILITY
.  
   
..NORTHEAST WASHINGTON AND NORTHERN IDAHO PANHANDLE
 
 
 
CITY SKY/WX TMP DP RH WIND PRES REMARKS
 
SPOKANE INTL MOSUNNY 47 27 45 NE7 30.25F  
SPOKANE DOWNTO SUNNY 51 30 44 CALM 30.26F  
COEUR D ALENE SUNNY 43 30 60 NE12 30.26F  
DEER PARK SUNNY 53 25 33 NE5 30.25F  
SANDPOINT SUNNY 46 27 46 NE14 30.28F  
BONNERS FERRY FAIR 45 27 49 CALM 30.29F  
   
..SOUTHEAST WASHINGTON AND SOUTHERN IDAHO PANHANDLE
 
 
 
CITY SKY/WX TMP DP RH WIND PRES REMARKS
 
WALLA WALLA SUNNY 47 38 71 NW5 30.23S  
PULLMAN/MOSCOW SUNNY 47 28 47 E12 30.24F  
LEWISTON SUNNY 53 31 42 E7 30.24F  
GRANGEVILLE FAIR 41 28 60 NE3 30.23F  
   
..COLUMBIA BASIN
 
 
 
CITY SKY/WX TMP DP RH WIND PRES REMARKS
 
EPHRATA SUNNY 53 33 46 N8 30.25F  
MOSES LAKE SUNNY 54 35 48 N10 30.25F  
PASCO SUNNY 47 35 63 N7 30.28S  
RICHLAND CLEAR 51 37 59 CALM 30.26F  
HERMISTON SUNNY 51 36 56 N6 30.23F  
PENDLETON SUNNY 52 40 63 VRB5 30.20F  
   
..EAST SLOPES CASCADES
 
 
 
CITY SKY/WX TMP DP RH WIND PRES REMARKS
 
THE DALLES SUNNY 49 36 61 CALM 30.24F  
YAKIMA SUNNY 56 31 38 W6 30.23F  
ELLENSBURG SUNNY 51 33 50 CALM 30.23F  
STAMPEDE PASS SUNNY 50 23 34 VRB7 30.16F  
WENATCHEE SUNNY 47 30 51 CALM 30.27F  
WINTHROP FAIR 41 25 53 CALM 30.28F  
OMAK SUNNY 52 30 43 N9 30.28F  
SUNNYSIDE CLEAR 49 38 64 S5 30.24F  
   
..SOUTHERN BRITISH COLUMBIA
 
 
 
CITY SKY/WX TMP DP RH WIND PRES REMARKS
 
PENTICTON MOSUNNY 45 30 57 N7 30.30F  
CASTLEGAR MOSUNNY 45 28 53 N8 30.31F  
CRANBROOK MOSUNNY 45 25 45 CALM 30.31F  
OSOYOOS N/A 50 28 43 NW3 N/A  
CRESTON N/A 45 30 57 SW3 N/A  
   
..WESTERN MONTANA
 
 
 
CITY SKY/WX TMP DP RH WIND PRES REMARKS
 
KALISPELL CLEAR 43 26 51 CALM 30.32F  
LIBBY N/A 52 23 32 CALM 30.30F  
MISSOULA SUNNY 36 24 62 CALM 30.34F  
   
..NEIGHBORING CITIES
 
 
 
CITY SKY/WX TMP DP RH WIND PRES REMARKS
 
SEATTLE MOSUNNY 74 25 16 E17G33 30.04F  
PORTLAND PTSUNNY 65 35 33 E18 29.99F  
BOISE SUNNY 58 26 29 SE8 30.25F  
GREAT FALLS SUNNY 36 27 69 SW7 30.28R  
CALGARY PTSUNNY 57 28 33 E3 30.20F  
 
CLICK HERE TO GO TO PREVIOUS BULLETINS.

The Nexlab WA Page
The Nexlab ID Page Main Text Page